Temp
27 29 27 20 21 22 17 15 14 18 15 21 23 22 24 26 29 30 31 32 33 34 36 38 38 40 41 42 43 44 44 44 44 45 45 45 43 44 44 45 45 46 49 52
24 28 24 22 23 23 22 14 12 14 16 27 28 30 26 28 29 27 29 31 33 35 36 36 37 38 39 40 41 43 43 42 44 44 45 44 42 42 42 43 43 44 45 48
18 20 18 16 23 22 23 22 19 16 24 24 26 28 27 27 28 28 29 31 33 34 36 36 37 38 38 39 41 41 41 42 43 44 43 43 42 41 41 42 43 43 44 46
20 20 7 23 29 27 22 28 24 23 22 23 25 28 31 33 30 30 31 32 34 36 36 37 39 39 39 40 39 40 40 41 42 42 42 43 41 40 40 42 42 42 44 44
16 16 22 24 27 24 21 23 32 28 28 28 31 32 34 38 38 35 35 36 37 38 38 38 38 38 38 38 38 38 38 40 41 41 41 42 40 39 39 41 41 42 43 43
19 12 8 23 29 32 30 18 32 31 31 29 29 23 29 37 37 37 38 38 37 38 38 38 38 38 36 36 36 35 38 39 41 41 40 41 40 39 39 40 42 42 42 42
19 15 19 29 32 33 16 21 34 34 34 31 27 30 34 38 38 39 38 37 38 38 36 37 38 37 35 35 34 37 39 40 41 41 40 41 42 39 39 38 41 41 40 40
18 12 11 33 31 22 31 37 36 36 35 33 33 35 36 37 37 37 36 36 37 36 35 37 37 36 34 34 37 38 39 39 40 40 41 41 41 39 39 38 37 37 38 38
23 25 32 35 35 39 39 36 37 36 37 36 35 35 36 36 36 35 35 35 36 35 35 36 37 36 33 34 35 36 38 38 39 40 40 41 40 40 36 37 36 35 36 36
26 33 32 36 38 38 39 37 38 38 37 37 35 36 35 35 35 34 35 34 35 34 33 33 35 35 35 35 36 36 35 37 38 38 38 40 41 41 37 36 35 35 34 35
28 32 34 36 38 37 37 37 37 38 37 36 35 35 34 33 33 33 33 33 34 33 32 32 33 35 36 35 36 35 35 36 37 38 38 38 40 40 40 39 36 36 35 36
27 35 35 35 37 38 37 37 37 35 36 36 35 33 33 32 32 32 31 32 32 32 32 31 33 33 34 34 34 33 33 35 35 34 37 38 39 40 38 36 36 36 35 36
35 37 37 38 38 39 37 37 37 36 35 33 34 33 32 31 32 31 31 31 31 29 30 31 31 31 32 32 33 32 31 33 34 35 35 37 38 38 37 40 37 36 36 36
37 36 33 35 36 39 38 37 35 35 35 33 32 33 32 31 31 30 29 30 30 30 29 30 29 29 30 31 31 31 31 30 33 34 35 36 38 38 38 37 36 37 37 35
35 38 40 39 38 37 37 35 34 33 33 32 32 31 31 29 28 28 29 30 30 29 28 27 27 27 29 30 30 30 31 31 33 34 35 34 37 38 38 36 35 34 34 33
36 37 36 35 37 36 35 34 33 32 31 31 30 29 29 29 29 29 29 29 26 25 26 26 25 27 29 29 28 29 30 29 31 34 34 34 33 32 31 31 30 30 30 29
32 31 33 33 34 35 33 34 33 32 31 30 28 28 28 27 27 27 27 28 27 26 26 25 24 27 28 28 28 29 30 30 30 33 32 31 31 30 31 30 29 29 29 30
40 39 39 38 37 35 33 33 32 32 30 30 29 28 27 26 24 25 26 27 27 26 26 26 26 27 27 27 28 29 30 30 31 29 30 29 28 29 29 28 27 27 27 29
38 37 36 37 37 35 34 33 32 32 30 30 28 22 25 25 25 25 26 23 22 23 24 26 24 26 27 25 26 29 28 29 29 29 28 27 27 28 27 26 26 25 25 25
36 38 37 36 35 35 33 33 32 30 30 29 22 18 19 18 18 18 24 24 24 24 26 25 26 25 26 26 24 27 27 27 26 26 26 26 24 24 24 22 23 23 22 22
36 36 35 34 33 33 34 33 31 29 29 28 26 20 18 21 19 18 21 23 25 26 25 24 24 24 26 24 26 26 25 25 25 24 23 23 22 22 22 22 21 21 20 19
36 35 34 34 32 32 33 32 31 30 28 27 21 19 19 22 21 22 21 24 27 23 25 26 26 21 23 22 26 25 24 24 24 24 23 22 21 19 19 20 18 19 18 18
36 36 35 32 31 31 32 31 30 29 27 25 20 22 24 26 26 24 22 27 27 25 26 26 21 20 19 25 25 24 23 22 22 22 22 21 21 19 20 19 18 18 17 17
35 35 34 34 33 30 27 29 30 30 29 28 27 27 26 24 25 27 28 25 22 22 25 25 22 19 18 24 24 23 22 22 22 22 22 19 21 20 19 18 17 18 17 16
35 34 34 31 29 29 30 30 29 29 28 28 28 28 28 28 26 27 27 27 22 22 25 21 18 18 23 23 22 21 22 22 22 20 21 20 20 18 19 18 17 17 16 15
34 33 33 33 32 31 30 29 26 27 27 26 27 27 27 27 27 26 26 24 25 23 24 24 22 21 22 22 22 21 21 22 21 21 19 19 19 18 17 17 15 15 14 14
34 33 33 32 33 31 29 28 26 25 27 27 25 27 27 26 26 25 24 24 23 23 22 22 22 21 21 21 21 21 21 21 19 18 18 17 17 16 15 14 13 13 13 13
MSLP
1033.14 1033.18 1033.66 1034.22 1034.46 1034.81 1035.37 1035.78 1035.75 1034.83 1034.67 1033.84 1033.49 1033.33 1032.83 1032.29 1031.45 1030.81 1029.96 1029.31 1028.68 1028.01 1027.26 1026.47 1025.75 1025.00 1024.23 1023.38 1022.49 1021.58 1020.41 1019.66 1018.87 1018.00 1017.02 1016.04 1015.58 1014.91 1014.29 1013.48 1012.45 1011.61 1010.71 1010.44
1032.79 1032.96 1033.48 1033.90 1034.10 1034.42 1034.80 1035.57 1035.53 1034.95 1034.28 1033.44 1033.12 1032.81 1032.57 1031.93 1031.37 1030.79 1030.09 1029.39 1028.73 1028.04 1027.32 1026.53 1025.83 1025.11 1024.33 1023.54 1022.63 1021.61 1020.54 1019.76 1019.10 1018.21 1017.06 1016.30 1015.91 1015.16 1014.36 1013.23 1012.44 1011.58 1010.75 1010.19
1032.78 1033.46 1033.84 1033.67 1033.23 1033.63 1033.88 1034.22 1034.43 1034.06 1033.25 1033.23 1032.81 1032.39 1031.98 1031.50 1031.06 1030.50 1029.95 1029.32 1028.64 1027.91 1027.21 1026.54 1025.86 1025.24 1024.40 1023.58 1022.54 1021.55 1020.87 1020.03 1019.43 1018.58 1017.41 1016.73 1016.28 1015.61 1014.73 1013.54 1012.46 1011.55 1010.98 1010.39
1033.19 1033.57 1033.36 1032.57 1032.81 1033.06 1033.15 1032.85 1033.27 1033.01 1032.61 1032.50 1032.26 1031.95 1031.34 1030.81 1030.47 1029.99 1029.57 1029.04 1028.49 1027.75 1027.11 1026.48 1025.83 1025.21 1024.55 1023.75 1022.99 1022.06 1021.12 1020.54 1019.89 1018.93 1017.91 1017.08 1016.73 1016.17 1015.24 1014.07 1012.97 1011.81 1011.15 1010.82
1033.74 1033.48 1032.59 1032.07 1032.37 1032.65 1032.70 1031.75 1031.75 1031.78 1031.61 1031.64 1031.52 1031.18 1030.31 1030.09 1029.78 1029.50 1029.13 1028.71 1028.23 1027.73 1027.14 1026.50 1025.85 1025.27 1024.61 1023.83 1023.21 1022.53 1021.79 1020.86 1020.10 1019.52 1018.58 1017.71 1017.16 1016.70 1015.85 1014.67 1013.38 1012.37 1011.75 1011.35
1033.91 1033.69 1032.64 1031.82 1031.99 1032.13 1032.20 1031.17 1031.01 1031.19 1031.11 1031.02 1031.03 1030.33 1029.58 1029.57 1029.46 1029.11 1028.77 1028.41 1028.06 1027.60 1027.07 1026.56 1025.97 1025.43 1024.75 1024.11 1023.50 1022.87 1022.08 1021.26 1020.58 1019.93 1019.14 1018.13 1017.75 1017.15 1016.30 1015.34 1014.04 1013.25 1012.44 1012.00
1033.42 1033.37 1032.23 1031.51 1031.63 1031.78 1031.42 1031.00 1030.48 1030.56 1030.42 1030.46 1030.38 1030.05 1029.41 1029.16 1028.94 1028.82 1028.61 1028.35 1028.08 1027.58 1027.05 1026.61 1026.15 1025.67 1024.98 1024.39 1023.78 1023.11 1022.34 1021.54 1020.63 1019.84 1019.26 1018.50 1017.92 1017.30 1016.44 1015.73 1014.75 1013.90 1013.23 1012.56
1033.03 1032.80 1031.47 1030.88 1031.07 1031.07 1030.26 1030.00 1029.91 1029.89 1029.89 1029.84 1029.76 1029.50 1029.15 1028.87 1028.76 1028.75 1028.59 1028.34 1028.05 1027.58 1027.12 1026.71 1026.34 1025.81 1025.20 1024.55 1023.90 1023.11 1022.26 1021.33 1020.49 1019.82 1019.16 1018.37 1017.59 1017.25 1016.58 1015.96 1015.36 1014.55 1013.89 1013.23
1031.68 1030.13 1029.90 1029.95 1029.76 1029.66 1029.68 1029.62 1029.35 1029.55 1029.54 1029.50 1029.38 1029.21 1029.05 1028.91 1028.92 1028.87 1028.73 1028.46 1028.17 1027.82 1027.33 1026.84 1026.44 1026.00 1025.42 1024.89 1024.13 1023.18 1022.19 1021.35 1020.64 1019.92 1019.14 1018.41 1017.72 1017.31 1017.04 1016.46 1016.07 1015.30 1014.59 1013.70
1030.67 1028.81 1028.97 1029.06 1029.09 1029.23 1029.20 1029.18 1029.21 1029.28 1029.35 1029.46 1029.45 1029.26 1029.19 1029.13 1029.10 1029.00 1028.82 1028.57 1028.34 1028.02 1027.55 1027.03 1026.66 1026.20 1025.75 1025.08 1024.43 1023.69 1022.72 1021.82 1021.13 1020.36 1019.62 1018.84 1018.26 1017.67 1017.53 1017.13 1016.52 1015.81 1014.62 1013.90
1028.93 1028.35 1028.40 1028.32 1028.40 1028.68 1028.78 1028.89 1028.90 1029.06 1029.25 1029.45 1029.54 1029.51 1029.55 1029.48 1029.45 1029.28 1029.01 1028.87 1028.65 1028.26 1027.91 1027.52 1027.05 1026.50 1026.10 1025.59 1024.88 1024.04 1023.22 1022.41 1021.62 1020.95 1020.29 1019.55 1018.97 1018.75 1018.30 1017.68 1017.38 1016.24 1015.42 1014.89
1027.08 1026.95 1027.26 1027.66 1027.99 1028.25 1028.45 1028.61 1028.78 1029.00 1029.14 1029.46 1029.74 1029.84 1029.90 1029.83 1029.80 1029.60 1029.37 1029.13 1028.82 1028.49 1028.18 1027.90 1027.47 1026.92 1026.49 1025.99 1025.37 1024.60 1023.78 1022.96 1022.27 1021.71 1020.82 1020.11 1019.44 1018.71 1018.33 1017.86 1017.11 1016.52 1016.15 1015.78
1026.32 1026.63 1026.93 1027.34 1027.76 1027.98 1028.13 1028.39 1028.76 1029.07 1029.36 1029.56 1029.84 1030.04 1030.15 1030.10 1030.03 1029.98 1029.76 1029.45 1029.04 1028.80 1028.68 1028.34 1027.85 1027.34 1026.99 1026.45 1025.66 1024.97 1024.33 1023.59 1022.85 1022.01 1021.36 1020.58 1019.69 1018.87 1017.88 1017.31 1017.02 1016.65 1016.24 1015.56
1026.40 1026.57 1026.97 1027.18 1027.27 1027.65 1028.05 1028.37 1028.77 1029.14 1029.43 1029.75 1029.93 1030.05 1030.11 1030.18 1030.22 1030.14 1029.96 1029.79 1029.54 1029.21 1028.94 1028.58 1028.19 1027.76 1027.37 1026.74 1025.99 1025.25 1024.55 1023.96 1023.14 1022.41 1021.74 1020.87 1019.94 1019.20 1018.53 1017.90 1017.25 1016.77 1016.31 1015.97
1025.85 1026.10 1026.13 1026.61 1027.16 1027.60 1028.02 1028.33 1028.58 1028.90 1029.34 1029.71 1030.06 1030.17 1030.22 1030.26 1030.36 1030.41 1030.35 1030.20 1029.88 1029.56 1029.41 1029.03 1028.57 1028.10 1027.58 1026.91 1026.17 1025.42 1024.64 1024.05 1023.52 1022.74 1021.99 1021.45 1020.47 1019.80 1019.32 1018.79 1018.22 1017.76 1017.24 1016.77
1025.04 1025.70 1026.18 1026.48 1026.76 1027.17 1027.67 1028.06 1028.44 1028.80 1029.32 1029.77 1030.17 1030.41 1030.55 1030.64 1030.63 1030.59 1030.55 1030.43 1030.16 1029.93 1029.88 1029.52 1029.03 1028.49 1027.82 1027.17 1026.50 1025.60 1024.93 1024.36 1023.70 1022.89 1022.24 1021.65 1021.23 1020.87 1020.54 1020.07 1019.56 1018.95 1018.25 1018.08
1024.54 1025.33 1025.71 1026.00 1026.28 1026.67 1027.19 1027.73 1028.26 1028.73 1029.27 1029.79 1030.27 1030.65 1030.78 1030.80 1030.81 1030.80 1030.70 1030.66 1030.56 1030.39 1030.29 1029.94 1029.53 1028.96 1028.27 1027.62 1026.83 1026.08 1025.34 1024.64 1023.99 1023.23 1022.81 1022.48 1022.08 1021.70 1021.30 1020.81 1020.40 1019.93 1019.43 1019.08
1023.05 1023.48 1024.23 1024.79 1025.56 1026.26 1026.96 1027.54 1028.05 1028.60 1029.20 1029.74 1030.28 1030.54 1030.76 1030.93 1031.00 1031.00 1031.01 1030.98 1030.78 1030.49 1030.42 1030.15 1029.84 1029.31 1028.74 1028.20 1027.43 1026.57 1025.85 1025.19 1024.63 1024.23 1023.86 1023.44 1023.07 1022.63 1022.19 1021.77 1021.38 1020.98 1020.34 1019.69
1022.69 1023.20 1023.79 1024.39 1025.03 1025.78 1026.57 1027.30 1027.95 1028.55 1029.25 1029.76 1030.25 1030.75 1030.86 1031.12 1031.21 1031.17 1031.10 1031.22 1031.02 1030.59 1030.51 1030.22 1030.00 1029.46 1028.98 1028.75 1028.11 1027.22 1026.56 1025.92 1025.35 1024.92 1024.59 1024.29 1023.81 1023.44 1023.07 1022.68 1022.18 1021.86 1021.41 1020.81
1022.25 1022.76 1023.32 1023.97 1024.66 1025.33 1026.20 1027.02 1027.76 1028.38 1028.96 1029.56 1030.36 1030.98 1031.16 1031.38 1031.48 1031.48 1031.16 1030.93 1030.90 1030.97 1030.77 1030.47 1030.05 1029.58 1029.18 1028.80 1028.55 1027.83 1027.30 1026.72 1026.17 1025.76 1025.52 1024.94 1024.62 1024.18 1023.91 1023.66 1023.28 1022.80 1022.48 1021.96
1021.56 1022.23 1022.86 1023.58 1024.30 1025.03 1025.70 1026.55 1027.29 1027.94 1028.59 1029.23 1029.82 1030.49 1030.88 1030.99 1031.26 1031.18 1031.09 1030.87 1030.86 1030.89 1030.79 1030.55 1030.25 1029.82 1029.25 1029.20 1028.54 1028.17 1027.80 1027.36 1026.90 1026.50 1026.12 1025.76 1025.44 1025.05 1024.67 1024.31 1023.99 1023.59 1023.27 1022.95
1020.94 1021.64 1022.41 1023.14 1023.85 1024.52 1025.16 1025.85 1026.66 1027.46 1028.19 1028.78 1029.40 1029.84 1030.36 1030.48 1030.62 1030.85 1030.77 1030.56 1030.56 1030.83 1030.60 1030.41 1030.27 1030.37 1029.82 1029.43 1028.65 1028.35 1028.05 1027.70 1027.30 1026.95 1026.65 1026.42 1026.08 1025.76 1025.34 1024.95 1024.57 1024.20 1023.84 1023.48
1020.15 1020.79 1021.65 1022.56 1023.19 1023.85 1024.76 1025.45 1026.12 1026.81 1027.49 1028.11 1028.77 1029.18 1029.28 1029.37 1029.63 1029.80 1030.02 1030.11 1030.28 1030.39 1030.36 1030.30 1030.64 1030.51 1030.19 1029.12 1028.87 1028.57 1028.24 1027.95 1027.61 1027.27 1026.94 1026.65 1026.26 1025.99 1025.53 1025.20 1024.94 1024.45 1024.07 1023.62
1019.40 1020.15 1020.82 1021.76 1022.76 1023.67 1024.29 1024.83 1025.48 1026.06 1026.62 1027.24 1027.71 1028.17 1028.64 1028.92 1029.18 1029.37 1029.56 1029.95 1030.10 1030.18 1030.05 1030.19 1030.35 1030.53 1030.37 1029.31 1029.03 1028.73 1028.36 1027.98 1027.64 1027.35 1026.96 1026.69 1026.24 1025.98 1025.62 1025.34 1024.87 1024.44 1024.09 1023.64
1018.65 1019.34 1020.16 1021.08 1021.99 1022.50 1023.18 1023.95 1024.87 1025.48 1026.00 1026.49 1026.98 1027.44 1027.77 1028.15 1028.45 1028.72 1029.13 1029.43 1029.75 1029.75 1029.62 1029.90 1030.21 1030.23 1029.63 1029.34 1029.07 1028.78 1028.38 1027.96 1027.58 1027.31 1026.82 1026.42 1026.04 1025.67 1025.26 1024.94 1024.64 1024.21 1023.85 1023.40
1017.83 1018.50 1019.00 1019.50 1020.26 1021.27 1022.12 1023.00 1023.67 1024.44 1025.09 1025.61 1026.06 1026.47 1026.99 1027.44 1027.89 1028.32 1028.65 1029.02 1029.29 1029.34 1029.32 1029.41 1029.49 1029.49 1029.22 1029.01 1028.79 1028.50 1028.13 1027.69 1027.34 1026.98 1026.65 1026.13 1025.64 1025.25 1024.87 1024.61 1024.30 1023.89 1023.47 1022.99
1016.95 1017.71 1018.52 1019.17 1019.56 1020.51 1021.30 1021.91 1022.62 1023.26 1023.94 1024.47 1024.97 1025.75 1026.33 1026.92 1027.35 1027.79 1028.14 1028.39 1028.78 1028.94 1029.00 1029.04 1029.02 1028.99 1028.94 1028.87 1028.49 1028.14 1027.83 1027.40 1027.12 1026.86 1026.45 1025.92 1025.49 1025.05 1024.71 1024.38 1024.04 1023.62 1023.10 1022.58
Wind_Speed
9 13 8 4 5 4 4 3 5 5 6 11 12 9 9 11 12 14 15 15 15 15 16 19 18 18 17 17 17 17 16 17 18 18 18 17 15 15 14 13 12 12 13 10
12 8 6 10 8 9 9 4 9 10 13 7 10 10 8 11 12 13 14 15 15 16 18 18 19 17 17 17 17 16 16 17 18 18 18 18 16 16 16 15 12 12 12 12
4 3 2 7 7 9 6 6 5 8 11 3 9 12 10 9 13 12 12 13 14 16 17 17 17 17 17 17 16 16 16 17 18 18 18 18 16 15 16 16 14 11 11 12
6 3 3 1 3 5 9 12 10 12 11 11 11 11 13 11 10 11 12 12 13 14 16 17 17 16 17 16 15 16 17 17 17 18 18 18 16 15 16 14 14 12 12 11
3 5 11 4 2 4 4 15 12 13 11 10 8 7 10 14 11 13 11 11 13 13 17 16 16 17 17 15 15 16 16 17 17 16 17 17 16 15 13 14 13 12 11 12
1 4 5 1 1 4 3 10 3 3 8 10 7 11 11 12 12 11 11 11 13 15 17 16 16 16 16 15 15 15 17 17 16 15 15 15 15 13 12 13 12 11 12 12
5 6 7 5 4 4 5 5 7 6 10 8 6 6 12 13 12 9 11 13 14 16 15 15 15 15 15 14 14 16 15 15 15 16 15 14 14 11 10 11 12 13 12 11
3 3 7 8 3 4 6 11 12 12 9 10 9 11 13 13 11 11 12 13 15 14 14 14 14 13 14 14 15 15 15 15 15 16 13 12 14 11 11 11 11 11 11 9
9 5 3 7 7 10 11 12 14 10 12 8 10 12 12 11 11 10 11 13 12 13 14 13 13 12 14 14 15 16 15 15 15 15 15 14 13 13 9 12 9 10 8 8
3 6 15 12 8 10 10 10 10 7 5 8 10 11 10 10 10 10 11 12 12 12 13 13 13 12 13 13 15 15 15 15 14 14 15 14 10 10 8 7 8 7 8 9
8 11 8 11 7 5 7 3 2 3 4 6 8 9 9 10 9 10 11 11 11 10 10 11 12 12 14 14 15 14 14 13 13 11 12 11 10 9 9 8 7 10 10 7
7 9 4 5 3 3 3 2 3 3 6 5 6 8 8 8 9 10 11 11 11 11 10 11 12 13 13 15 15 14 13 11 10 10 10 9 9 9 7 9 11 12 14 11
4 8 6 3 4 6 4 3 2 3 2 4 6 5 7 8 10 11 10 11 12 10 11 12 12 13 14 15 15 14 12 12 10 9 10 10 10 10 10 10 8 9 14 18
7 7 3 6 5 7 6 2 1 2 4 4 3 5 7 8 9 10 11 9 10 11 11 13 13 13 14 14 14 14 13 12 9 9 9 10 10 10 10 11 12 12 12 17
13 10 5 4 6 5 4 3 2 1 3 3 4 5 7 8 9 9 8 10 10 9 12 12 13 14 14 14 14 13 10 8 9 8 8 9 10 10 10 11 11 11 11 15
14 12 10 8 7 5 5 5 4 1 1 1 3 5 5 6 6 7 7 9 9 9 11 12 12 13 13 14 14 10 10 11 10 7 8 9 9 9 10 9 9 9 9 11
10 11 11 10 10 8 9 6 5 3 4 2 1 2 3 4 5 6 6 8 8 8 9 10 12 12 13 14 13 9 8 9 12 9 9 9 9 9 9 10 10 10 10 13
11 12 14 13 9 8 8 8 6 6 5 4 4 2 1 3 4 5 6 7 8 7 10 10 11 11 11 13 12 9 8 8 8 8 8 9 9 9 9 10 10 11 11 12
14 12 11 11 9 8 8 8 7 7 7 6 5 4 2 1 2 4 4 5 6 8 10 10 12 11 11 13 12 8 8 9 9 8 8 10 9 9 9 10 10 11 11 11
13 12 11 10 10 10 9 7 9 8 7 7 5 5 4 3 1 2 4 3 5 5 8 9 9 9 9 10 11 7 9 9 9 9 9 9 9 9 9 10 10 10 10 10
14 13 13 12 11 10 10 10 10 10 9 8 9 7 6 4 4 3 3 1 2 5 6 6 7 7 6 8 7 7 8 8 8 7 8 8 8 9 9 9 9 9 9 9
12 13 13 12 12 12 11 11 11 9 10 9 5 6 6 7 6 7 4 3 2 3 4 4 5 8 8 9 6 6 7 7 7 6 6 7 7 7 8 9 9 9 9 9
12 13 13 13 13 12 12 11 11 12 11 10 9 10 9 6 5 5 5 5 3 1 3 3 5 8 9 5 5 6 7 7 7 7 6 7 7 7 7 8 8 8 8 9
13 13 14 12 11 11 13 13 12 12 11 11 11 11 8 6 5 5 4 4 4 3 3 2 4 6 8 5 5 6 6 6 7 7 8 8 7 7 8 8 9 8 8 9
13 13 13 14 13 11 13 13 12 11 12 11 11 10 10 7 6 4 5 4 5 4 3 1 4 5 5 5 6 7 7 7 7 9 9 9 9 9 9 9 9 10 10 10
13 11 11 16 13 10 10 10 10 9 10 10 9 9 8 7 6 6 5 4 4 3 4 3 3 4 5 6 7 8 8 9 9 9 10 10 10 11 10 11 11 11 11 11
10 12 9 9 9 9 10 11 10 11 11 10 10 10 9 8 8 7 6 5 4 3 3 3 3 3 5 6 7 8 8 9 9 9 10 9 10 10 10 10 11 11 10 10
Wind_Direction
257 278 252 233 239 257 266 239 251 310 253 281 286 280 291 302 315 328 329 332 334 338 339 342 342 342 343 342 341 343 350 350 345 345 351 354 343 339 331 334 335 331 323 315
303 323 217 257 255 242 242 206 258 265 276 259 272 287 283 306 323 319 323 324 329 333 341 340 341 341 340 341 341 345 351 352 344 344 349 354 347 340 340 337 339 340 336 327
295 26 263 276 269 223 219 212 219 265 287 283 294 302 304 296 309 309 314 318 327 332 339 337 338 341 341 339 341 346 348 352 346 345 349 350 348 339 342 343 343 345 344 335
306 326 285 201 235 240 236 264 227 264 264 258 264 285 291 296 291 308 315 316 323 330 336 336 335 340 337 341 342 345 347 347 345 344 349 350 349 342 343 343 345 353 353 346
291 291 287 273 212 231 222 297 291 274 285 271 293 293 296 331 314 314 309 315 326 332 334 334 336 339 338 339 342 342 345 343 344 342 344 351 345 341 343 345 351 359 1 360
207 286 264 210 319 190 175 293 325 240 299 296 312 310 325 324 316 310 320 328 331 334 334 336 338 339 338 340 340 339 340 338 337 344 341 348 345 334 338 347 2 4 8 8
230 247 275 233 216 174 292 327 316 306 309 291 275 274 298 313 320 321 333 335 338 336 335 336 338 339 337 339 340 336 334 335 339 345 343 346 348 336 343 350 351 6 7 10
178 236 270 185 193 220 275 293 291 300 298 297 280 294 310 320 328 336 338 340 341 337 336 339 344 343 341 342 337 337 336 340 344 343 343 346 353 347 348 359 2 356 2 6
207 227 190 190 253 268 276 279 287 297 302 298 300 311 322 330 333 339 341 340 342 340 337 341 346 348 345 343 341 341 342 346 346 343 346 351 353 357 343 4 5 7 360 4
225 228 232 248 252 263 281 281 289 285 294 312 305 324 330 336 342 339 340 340 340 341 341 341 347 350 351 348 352 350 345 345 345 345 344 349 353 359 351 349 354 1 5 9
249 258 244 255 247 279 304 279 247 305 305 317 330 335 340 338 343 340 339 340 340 341 343 343 345 346 350 349 345 347 342 344 346 345 347 346 348 352 352 2 350 5 11 5
223 196 200 241 240 193 209 270 307 313 322 358 356 342 344 345 345 343 344 344 341 341 344 348 340 340 345 345 342 341 337 338 342 340 344 349 345 344 349 346 345 355 358 7
176 172 194 199 212 203 224 261 307 317 58 359 4 5 354 343 347 347 348 346 341 359 346 343 342 340 345 340 337 339 335 332 330 339 342 344 348 351 350 357 344 356 5 4
183 138 175 187 210 212 221 245 176 111 63 21 24 18 359 352 350 351 351 351 357 344 348 348 348 348 346 343 340 339 335 334 329 335 337 339 345 349 353 353 354 358 13 6
205 206 199 148 188 211 209 187 204 1 13 28 25 9 4 358 353 356 359 351 349 355 1 353 353 351 348 346 344 340 342 343 335 330 340 339 345 351 357 358 359 360 359 6
197 203 201 208 214 217 214 198 229 241 52 80 13 12 8 358 356 357 2 359 1 8 3 0 354 352 348 352 349 347 352 344 348 347 352 358 1 3 2 2 2 0 5 10
165 195 203 216 219 221 211 206 202 189 156 155 82 6 6 14 3 360 6 9 7 12 5 5 355 351 354 358 353 356 358 3 7 11 15 6 3 3 4 5 7 4 6 12
197 194 193 202 209 209 194 191 177 171 178 162 158 167 75 31 3 357 2 0 4 10 13 6 1 355 360 1 354 358 2 7 13 16 17 15 9 9 6 6 6 3 358 1
197 189 182 192 189 184 181 180 178 171 166 171 177 171 155 118 5 355 342 355 355 359 5 1 359 2 5 10 356 1 5 7 11 15 10 11 8 10 10 3 3 4 358 357
195 198 180 177 167 168 173 174 172 175 175 174 146 164 176 181 194 321 319 356 14 357 340 356 355 4 3 5 3 11 11 11 13 11 17 9 11 8 8 8 2 3 0 357
190 185 179 175 178 174 176 172 176 185 183 185 189 183 188 184 199 227 260 291 351 1 350 351 5 1 359 354 360 12 11 8 9 9 5 4 359 0 359 358 358 356 354 352
184 181 180 176 174 182 180 178 182 184 186 191 169 170 181 201 192 222 222 266 312 340 338 358 2 1 351 338 3 6 7 5 2 357 358 354 355 350 344 345 344 342 344 342
186 184 176 176 181 185 177 181 184 187 192 186 185 192 203 203 205 211 226 200 252 292 304 335 352 347 343 345 358 355 352 351 348 347 342 341 333 332 325 331 327 327 327 329
182 182 183 177 165 167 184 190 190 193 197 197 197 200 198 194 203 216 225 219 220 248 274 327 335 333 323 340 341 340 336 333 330 330 323 321 320 318 320 317 313 319 315 311
184 183 172 167 177 193 189 184 187 194 195 199 200 199 197 201 208 195 205 219 204 243 273 273 303 307 308 319 320 319 317 316 318 315 312 313 313 309 309 309 308 307 309 304
180 187 184 183 189 185 180 174 187 187 190 199 202 197 197 194 195 197 209 218 233 231 257 281 291 304 303 307 313 312 311 312 310 311 309 306 307 305 307 309 308 306 305 303
189 184 188 188 178 177 181 183 183 190 192 194 198 196 194 193 195 197 200 205 221 234 251 273 286 298 307 309 308 311 311 311 312 312 309 307 308 309 310 309 307 306 303 302